[[{"header":{"parameterUnit":"m.s-1","parameterCategory":2,"la1":30.2991,"la2":30.254,"lo1":-89.0895,"lo2":-89.0444,"dy":0.0017,"dx":0.0017,"nx":28,"ny":28,"refTime":"2025-02-06T09:00:00:Z","depth":"0","parameterNumber":2,"parameterNumberName":"U-component_of_CURRENTS"},"data":[0,0,0,0,0,0,0,0,0,0,0,0,0,0,0,0,0,0,0,0,0,0,0,0,0,0,0,0,0,0,0,0,0,0,0,0,0,0,0,0,0,0,0,0,0,0,0,0,0,0,0,0,0,0,0,0,0,0,0.2476,0.2476,0,0.2478,0.2478,0.2478,0.2478,0.2478,0.2478,0.2478,0.2504,0.2505,0.2506,0,0,0,0,0,0,0,0,0,0,0,0,0,0.2468,0.2469,0.2476,0.2476,0.2475,0.2478,0.2478,0.2478,0.2478,0.2478,0.2478,0.2478,0.2504,0.2505,0.2506,0,0,0,0,0,0,0,0,0,0,0,0,0,0.2472,0.2469,0.2476,0.2475,0.2475,0.2478,0.2478,0.2478,0.2478,0.2478,0.2478,0.2478,0.2504,0.2505,0.2506,0.2519,0,0,0.251,0.2511,0,0,0,0,0,0,0,0,0.2472,0.2473,0.2475,0.2475,0.2475,0.2476,0.2485,0.2492,0.2478,0.2479,0.2478,0.2478,0.2496,0.2498,0.2501,0.252,0.2521,0.251,0.2511,0.2511,0.2512,0,0,0,0,0,0,0,0.2472,0.2473,0.2478,0.2475,0.2475,0.2473,0.2473,0.2486,0.249,0.2479,0.2478,0.2476,0.2497,0.25,0.2502,0.2521,0.251,0.2511,0.2512,0.2512,0.2611,0.2613,0,0,0,0,0,0,0.2469,0.2473,0.2478,0.2478,0.2471,0.2473,0.2474,0.2477,0.249,0.2491,0.2476,0.2476,0.2498,0.25,0.2502,0.2567,0.2511,0.2513,0.2513,0.2609,0.2611,0.2613,0,0,0,0,0,0,0.2469,0.247,0.2478,0.2474,0.2474,0.2473,0.2477,0.2477,0.2478,0.2487,0.2489,0.2477,0.2497,0.2501,0.2525,0.2566,0.2513,0.2514,0.2607,0.261,0.2612,0.2664,0,0,0,0,0,0,0.2469,0.247,0.2476,0.2474,0.2474,0.2493,0.2477,0.2477,0.2477,0.2477,0.2489,0.2491,0.2498,0.2523,0.2526,0.2567,0.2515,0.2604,0.2608,0.2611,0.266,0.2668,0.2675,0,0,0,0,0,0.2469,0.2481,0.2476,0.2477,0.2481,0.2494,0.2496,0.2494,0.2477,0.2491,0.2496,0.249,0.2548,0.2525,0.2529,0.257,0.2603,0.2607,0.2611,0.2656,0.2667,0.2675,0,0,0,0,0,0,0.249,0.2482,0.2477,0.2488,0.2495,0.2494,0.2505,0.2493,0.2506,0.2503,0.2504,0.2508,0.2553,0.255,0.2525,0.2611,0.2579,0.2584,0.2613,0.2622,0.2629,0.2658,0.2516,0,0,0,0,0,0.2494,0.2495,0.2495,0.2505,0.251,0.2504,0.2507,0.2503,0.251,0.2514,0.252,0.2537,0.2574,0.2585,0.2613,0.2645,0.2679,0.2679,0.2686,0.2693,0.272,0.2822,0.2842,0.2627,0.2627,0.2627,0,0,0.2504,0.25,0.2502,0.2509,0.2513,0.2537,0.2507,0.2515,0.2546,0.2516,0.2558,0.2564,0.259,0.264,0.266,0.264,0.2765,0.2698,0.2703,0.2727,0.2829,0.285,0.2869,0.263,0.2629,0.2629,0,0,0.2526,0.2525,0.2534,0.2546,0.255,0.2556,0.2558,0.2559,0.2574,0.2602,0.2605,0.2636,0.2664,0.2706,0.2728,0.2793,0.2806,0.2793,0.2851,0.2949,0.2969,0.2986,0.3025,0.3046,0.2792,0.2792,0.2792,0,0.254,0.2551,0.2543,0.2563,0.2579,0.2568,0.2596,0.2619,0.2629,0.2655,0.2627,0.2704,0.2711,0.2802,0.2823,0.2815,0.285,0.2809,0.2961,0.2979,0.2996,0.3033,0.3055,0.2795,0.2795,0.2795,0.2794,0,0.257,0.2586,0.2598,0.2622,0.2644,0.2663,0.2692,0.272,0.2722,0.274,0.2812,0.2824,0.2874,0.2879,0.2867,0.299,0.2968,0.2962,0.2938,0.3021,0.3053,0.3075,0.28,0.2799,0.2798,0.2797,0,0,0.2577,0.2611,0.2614,0.2641,0.2673,0.2697,0.2763,0.2821,0.2877,0.289,0.2963,0.3014,0.3008,0.3035,0.303,0.31,0.3223,0.3078,0.3082,0.3117,0.3411,0.3293,0.3305,0.3248,0.3252,0.3256,0.3374,0,0.2602,0.2648,0.2661,0.2724,0.2756,0.2785,0.2856,0.291,0.2951,0.3023,0.3054,0.3118,0.3075,0.3096,0.3167,0.3219,0.3289,0.319,0.3326,0.333,0.3217,0.333,0.3117,0.3196,0.3395,0.3399,0.3401,0,0.2623,0.2653,0.271,0.2785,0.2804,0.2848,0.2956,0.3018,0.312,0.3153,0.3218,0.3235,0.3333,0.328,0.3436,0.3375,0.3407,0.3434,0.344,0.3336,0.3255,0.3153,0.3228,0.3111,0.3435,0.3432,0.343,0,0.2629,0.269,0.2737,0.276,0.2845,0.2891,0.2947,0.3052,0.3131,0.3239,0.3297,0.3395,0.3453,0.3536,0.3564,0.3525,0.3721,0.3676,0.3601,0.359,0.344,0.3408,0.3423,0.3814,0.3813,0.3813,0.3813,0,0.265,0.269,0.2744,0.2773,0.2864,0.291,0.3022,0.3097,0.3211,0.3307,0.3363,0.3449,0.3529,0.362,0.3637,0.3684,0.379,0.3647,0.3639,0.3444,0.3413,0.3326,0.3291,0.3817,0.3816,0.3815,0.3815,0,0.2662,0.2684,0.2756,0.2839,0.2868,0.2941,0.3066,0.3148,0.3251,0.3379,0.3417,0.354,0.3639,0.3691,0.3817,0.3772,0.3707,0.3813,0.354,0.3498,0.3274,0.3249,0.3215,0.3135,0.3756,0.3754,0.3753,0,0.2672,0.2706,0.2803,0.2851,0.289,0.2987,0.3057,0.3165,0.3242,0.3422,0.3478,0.3607,0.3655,0.3772,0.3729,0.3743,0.3656,0.3549,0.344,0.3264,0.3234,0.3142,0.3072,0.3252,0.3246,0.3242,0.3238,0,0.2716,0.2749,0.2814,0.2896,0.2965,0.3042,0.313,0.3187,0.3305,0.3401,0.3496,0.3544,0.3614,0.3514,0.3521,0.3499,0.3341,0.3454,0.3374,0.2938,0.2743,0.2658,0.3138,0.3198,0.3202,0.3205,0.3207,0.3209,0.2754,0.281,0.2876,0.295,0.302,0.3049,0.3058,0.3135,0.3214,0.3266,0.3402,0.338,0.3325,0.3283,0.3248,0.2999,0.3081,0.2856,0.287,0.2816,0.2648,0.301,0.2994,0.2996,0.2999,0.3001,0.3003,0,0.2784,0.2834,0.2916,0.2973,0.2999,0.3033,0.307,0.3021,0.3023,0.3098,0.3131,0.3,0.2875,0.2793,0.2574,0.2433,0.2342,0.2347,0.2176,0.2163,0.2567,0.2449,0.2188,0.2188,0.2188,0.2188,0.2188,0.2188,0.2801,0.2865,0.2891,0.2913,0.2933,0.2873,0.2842,0.2783,0.2772,0.2648,0.2539,0.2538,0.2469,0.2297,0.2064,0.2003,0.1882,0.1749,0.1844,0.2107,0.2155,0.2201,0.2081,0.1747,0.1747,0.13,0.1296,0.1293]},{"header":{"parameterUnit":"m.s-1","parameterCategory":2,"la1":30.2991,"la2":30.254,"lo1":-89.0895,"lo2":-89.0444,"dy":0.0017,"dx":0.0017,"nx":28,"ny":28,"refTime":"2025-02-06T09:00:00:Z","depth":"0","parameterNumber":3,"parameterNumberName":"V-component_of_CURRENTS"},"data":[0,0,0,0,0,0,0,0,0,0,0,0,0,0,0,0,0,0,0,0,0,0,0,0,0,0,0,0,0,0,0,0,0,0,0,0,0,0,0,0,0,0,0,0,0,0,0,0,0,0,0,0,0,0,0,0,0,0,0.0304,0.0304,0,0.0278,0.0277,0.0277,0.0255,0.0254,0.0254,0.0254,0.0231,0.0231,0.023,0,0,0,0,0,0,0,0,0,0,0,0,0,0.03,0.0301,0.0304,0.0304,0.0303,0.0278,0.0277,0.0277,0.0255,0.0254,0.0254,0.0254,0.0231,0.0231,0.023,0,0,0,0,0,0,0,0,0,0,0,0,0,0.0291,0.0301,0.0304,0.0289,0.0287,0.0278,0.0277,0.0277,0.0255,0.0254,0.0254,0.0253,0.0231,0.0231,0.023,0.0235,0,0,0.0229,0.0228,0,0,0,0,0,0,0,0,0.0292,0.0291,0.0291,0.029,0.0288,0.0269,0.0268,0.0263,0.0255,0.0267,0.0254,0.0253,0.0244,0.0242,0.0239,0.0234,0.0233,0.0229,0.0228,0.0228,0.0228,0,0,0,0,0,0,0,0.0292,0.0292,0.0294,0.0291,0.0289,0.0272,0.027,0.0267,0.0259,0.0266,0.0264,0.0261,0.0243,0.0239,0.0238,0.0233,0.0229,0.0228,0.0228,0.0228,0.0274,0.0276,0,0,0,0,0,0,0.0298,0.0293,0.0295,0.0293,0.0289,0.0272,0.027,0.0276,0.0258,0.0255,0.0262,0.026,0.024,0.0239,0.0237,0.0288,0.0228,0.0227,0.0227,0.0273,0.0274,0.0276,0,0,0,0,0,0,0.0298,0.0298,0.0296,0.0291,0.029,0.0273,0.0278,0.0275,0.0271,0.0255,0.0252,0.0261,0.024,0.0238,0.0249,0.0285,0.0227,0.0227,0.0271,0.0273,0.0275,0.0361,0,0,0,0,0,0,0.0298,0.0299,0.0305,0.0292,0.029,0.0299,0.0279,0.0275,0.027,0.0268,0.0253,0.0251,0.024,0.025,0.0249,0.0283,0.0226,0.0269,0.0272,0.0275,0.0356,0.0366,0.0374,0,0,0,0,0,0.0298,0.0312,0.0306,0.0306,0.03,0.03,0.0298,0.0284,0.027,0.0276,0.0272,0.0251,0.0268,0.0251,0.0249,0.0284,0.0267,0.0271,0.0274,0.0352,0.0364,0.0374,0,0,0,0,0,0,0.0315,0.0311,0.0304,0.0316,0.0311,0.0296,0.0302,0.0287,0.0286,0.0285,0.0266,0.0264,0.0291,0.0273,0.0255,0.0307,0.0266,0.0269,0.0326,0.0337,0.0346,0.0377,0.0226,0,0,0,0,0,0.0322,0.0331,0.0322,0.0332,0.0334,0.0317,0.0314,0.0304,0.0299,0.0297,0.0288,0.0287,0.0304,0.0307,0.0311,0.0334,0.0324,0.0357,0.0366,0.0373,0.0398,0.0423,0.0437,0.0288,0.0288,0.0287,0,0,0.033,0.033,0.0333,0.0336,0.0332,0.0354,0.0315,0.0317,0.0343,0.0296,0.0328,0.0316,0.0317,0.035,0.036,0.0339,0.0406,0.0378,0.0385,0.0405,0.0428,0.0442,0.0455,0.029,0.029,0.0289,0,0,0.036,0.0354,0.0376,0.038,0.0379,0.0376,0.0378,0.0368,0.0373,0.0391,0.0379,0.0394,0.0395,0.0419,0.0429,0.0489,0.0453,0.048,0.0552,0.0576,0.0588,0.06,0.0584,0.0593,0.0485,0.0485,0.0485,0,0.0373,0.0402,0.0382,0.0409,0.0427,0.0393,0.0432,0.0434,0.0428,0.0452,0.0413,0.0453,0.044,0.0514,0.0533,0.0514,0.0502,0.051,0.0589,0.06,0.061,0.0591,0.06,0.0489,0.0489,0.0488,0.0488,0,0.0425,0.0449,0.0465,0.0496,0.0511,0.0534,0.054,0.0555,0.0546,0.055,0.0598,0.058,0.061,0.0605,0.0585,0.066,0.0619,0.0597,0.0562,0.063,0.0605,0.0613,0.0496,0.0494,0.0493,0.0492,0,0,0.0455,0.0497,0.0502,0.0538,0.0562,0.0581,0.0635,0.0682,0.0729,0.0713,0.0778,0.0793,0.0769,0.078,0.0757,0.077,0.0811,0.0715,0.0714,0.0702,0.0836,0.0781,0.0784,0.0798,0.0801,0.0803,0.0782,0,0.0509,0.0581,0.059,0.0667,0.071,0.0715,0.0772,0.0806,0.0823,0.087,0.0865,0.0905,0.0842,0.0853,0.0864,0.0836,0.084,0.0818,0.0771,0.0769,0.0716,0.0795,0.0766,0.0744,0.0789,0.079,0.0791,0,0.0563,0.0607,0.0693,0.0768,0.0789,0.0829,0.0922,0.0966,0.1024,0.1038,0.1072,0.1053,0.1091,0.1009,0.1007,0.0992,0.0928,0.0886,0.0884,0.0817,0.0732,0.0689,0.0756,0.0654,0.0803,0.0802,0.0801,0,0.0602,0.0681,0.0757,0.0781,0.0858,0.0906,0.095,0.1018,0.1081,0.1145,0.119,0.1208,0.1228,0.1174,0.1081,0.1049,0.1053,0.0996,0.0885,0.0878,0.084,0.0826,0.0811,0.0994,0.0994,0.0995,0.0995,0,0.0663,0.0719,0.0778,0.0818,0.0915,0.0951,0.1058,0.1104,0.1189,0.1286,0.1274,0.1349,0.1271,0.1254,0.1143,0.1049,0.1104,0.0924,0.089,0.0864,0.0853,0.0748,0.0683,0.0994,0.0994,0.0994,0.0994,0,0.0699,0.0736,0.0821,0.0906,0.0935,0.1003,0.1114,0.1191,0.1265,0.1393,0.1421,0.1471,0.1457,0.1352,0.127,0.114,0.0975,0.0984,0.0937,0.0899,0.0684,0.0624,0.0582,0.055,0.0866,0.0865,0.0864,0,0.073,0.0778,0.0872,0.0923,0.0963,0.1059,0.1129,0.1218,0.1308,0.1476,0.1545,0.1579,0.1622,0.1471,0.1258,0.1067,0.0958,0.0884,0.0825,0.0697,0.0606,0.0572,0.0547,0.0791,0.079,0.0789,0.0788,0,0.0792,0.0816,0.0881,0.0974,0.1051,0.1147,0.1254,0.1337,0.1467,0.1591,0.1742,0.1794,0.1669,0.1485,0.1214,0.1067,0.0809,0.0851,0.0754,0.059,0.0521,0.0466,0.0747,0.0777,0.0778,0.0779,0.0779,0.078,0.0827,0.0876,0.0946,0.1035,0.112,0.1224,0.1313,0.1443,0.1602,0.1806,0.1861,0.1968,0.1671,0.1314,0.1117,0.0702,0.0735,0.0563,0.0511,0.0496,0.0451,0.0691,0.066,0.066,0.066,0.0661,0.0661,0,0.0863,0.0913,0.1002,0.1104,0.1192,0.1232,0.139,0.1496,0.1683,0.1874,0.2018,0.1903,0.1568,0.1202,0.0636,0.0398,0.0339,0.0276,0.0233,0.0232,0.0477,0.0457,0.0338,0.0338,0.0338,0.0339,0.0339,0.0339,0.0881,0.0955,0.0995,0.1134,0.121,0.1338,0.1427,0.1595,0.1751,0.1937,0.1989,0.2018,0.1665,0.0779,0.0225,0.0116,-0.0003,-0.0053,-0.0083,0.007,0.0093,0.0116,0.0084,-0.0111,-0.0111,-0.0293,-0.0295,-0.0297]}],[{"header":{"parameterUnit":"m.s-1","parameterCategory":2,"la1":30.2991,"la2":30.254,"lo1":-89.0895,"lo2":-89.0444,"dy":0.0017,"dx":0.0017,"nx":28,"ny":28,"refTime":"2025-02-06T09:00:00:Z","depth":"2","parameterNumber":2,"parameterNumberName":"U-component_of_CURRENTS"},"data":[0,0,0,0,0,0,0,0,0,0,0,0,0,0,0,0,0,0,0,0,0,0,0,0,0,0,0,0,0,0,0,0,0,0,0,0,0,0,0,0,0,0,0,0,0,0,0,0,0,0,0,0,0,0,0,0,0,0,0.1907,0.1907,0,0.1937,0.1937,0.1937,0.1935,0.1935,0.1935,0.1935,0.1998,0.1999,0.2001,0,0,0,0,0,0,0,0,0,0,0,0,0,0.1909,0.1908,0.1907,0.1907,0.1908,0.1937,0.1937,0.1937,0.1935,0.1935,0.1935,0.1935,0.1997,0.1999,0.2001,0,0,0,0,0,0,0,0,0,0,0,0,0,0.1916,0.1908,0.1906,0.1914,0.1915,0.1937,0.1937,0.1937,0.1935,0.1935,0.1935,0.1935,0.1996,0.1999,0.2001,0.2018,0,0,0.2009,0.201,0,0,0,0,0,0,0,0,0.1916,0.1916,0.1912,0.1914,0.1915,0.1936,0.1961,0.1967,0.1935,0.1923,0.1935,0.1935,0.1983,0.1986,0.1986,0.2021,0.2024,0.2009,0.2011,0.2012,0.2013,0,0,0,0,0,0,0,0.1915,0.1915,0.1914,0.1913,0.1915,0.1937,0.1937,0.1962,0.195,0.1924,0.1925,0.1935,0.1983,0.1983,0.1987,0.2025,0.2009,0.2011,0.2013,0.2014,0.2128,0.213,0,0,0,0,0,0,0.1917,0.1914,0.1913,0.1916,0.192,0.1937,0.1937,0.1926,0.195,0.1954,0.1935,0.1935,0.1979,0.1984,0.199,0.2058,0.2012,0.2014,0.2016,0.2127,0.2129,0.213,0,0,0,0,0,0,0.1916,0.1915,0.1912,0.192,0.1922,0.1937,0.1925,0.1927,0.1936,0.1958,0.1962,0.1945,0.1979,0.1986,0.2014,0.2059,0.2015,0.2018,0.2125,0.2128,0.213,0.2166,0,0,0,0,0,0,0.1915,0.1914,0.1916,0.1919,0.1922,0.1934,0.1926,0.1927,0.1944,0.1944,0.1968,0.1972,0.198,0.201,0.2017,0.2062,0.202,0.2123,0.2126,0.2129,0.2163,0.2169,0.2174,0,0,0,0,0,0.1915,0.1918,0.1915,0.1916,0.1919,0.1935,0.1938,0.1946,0.1944,0.1953,0.1963,0.1972,0.2034,0.2013,0.202,0.2067,0.2122,0.2125,0.2129,0.216,0.2168,0.2174,0,0,0,0,0,0,0.1915,0.1919,0.1915,0.1917,0.1929,0.1936,0.1951,0.1953,0.1966,0.1971,0.198,0.1986,0.2035,0.2041,0.2018,0.2109,0.2085,0.209,0.2106,0.2114,0.2119,0.2138,0.2022,0,0,0,0,0,0.1916,0.1922,0.1926,0.1931,0.1936,0.1943,0.1954,0.196,0.1972,0.1977,0.1993,0.2019,0.2054,0.2072,0.21,0.2141,0.2164,0.218,0.2186,0.2191,0.2212,0.2283,0.2297,0.2142,0.2142,0.2141,0,0,0.1922,0.1923,0.1929,0.1933,0.194,0.1962,0.1948,0.197,0.1992,0.1985,0.202,0.204,0.2069,0.2117,0.2141,0.2128,0.2243,0.2195,0.2199,0.2218,0.2288,0.2303,0.2317,0.2144,0.2143,0.2143,0,0,0.1936,0.1931,0.1941,0.1956,0.1974,0.1985,0.1993,0.2007,0.2015,0.2054,0.2057,0.2104,0.2145,0.2179,0.2201,0.2259,0.2272,0.2266,0.2312,0.238,0.2394,0.2406,0.2435,0.2449,0.2268,0.2268,0.2268,0,0.1947,0.1946,0.195,0.1966,0.1982,0.1997,0.2015,0.2036,0.2059,0.2076,0.2076,0.2164,0.2188,0.2257,0.2278,0.2278,0.2296,0.2279,0.2389,0.2402,0.2414,0.244,0.2456,0.227,0.227,0.227,0.227,0,0.1963,0.1974,0.1983,0.2007,0.2025,0.2047,0.2073,0.2113,0.2135,0.2146,0.2215,0.225,0.2307,0.2324,0.2322,0.2416,0.2394,0.2387,0.237,0.2432,0.2455,0.2471,0.2273,0.2273,0.2272,0.2271,0,0,0.1965,0.1988,0.1995,0.2011,0.2046,0.2066,0.2125,0.2168,0.2219,0.2255,0.2317,0.2383,0.2396,0.2423,0.2432,0.2491,0.2587,0.2475,0.2477,0.2501,0.271,0.2584,0.2588,0.2593,0.2597,0.26,0.2684,0,0.1977,0.2003,0.2014,0.2062,0.2079,0.2125,0.2182,0.2231,0.2273,0.2342,0.2389,0.2455,0.2431,0.2479,0.253,0.2578,0.2633,0.2563,0.265,0.2652,0.2532,0.2605,0.238,0.2428,0.2699,0.2702,0.2704,0,0.1986,0.2004,0.2032,0.2093,0.2106,0.2148,0.2246,0.2285,0.2379,0.2429,0.2494,0.2527,0.2619,0.2603,0.2714,0.2665,0.2699,0.273,0.2734,0.262,0.2556,0.2415,0.2446,0.273,0.2728,0.2726,0.2724,0,0.1978,0.2022,0.2041,0.2059,0.2133,0.2176,0.2217,0.2305,0.2341,0.2475,0.2543,0.2632,0.2704,0.2766,0.2806,0.2782,0.2918,0.2893,0.281,0.28,0.263,0.2598,0.2999,0.2998,0.2998,0.2998,0.2998,0,0.1979,0.2007,0.2044,0.2066,0.2126,0.2162,0.2239,0.2319,0.2404,0.2475,0.2561,0.265,0.2756,0.2825,0.2849,0.2861,0.2953,0.2839,0.2828,0.263,0.2599,0.2879,0.2864,0.3001,0.3,0.3,0.2999,0,0.196,0.1989,0.202,0.2088,0.2121,0.2148,0.223,0.2276,0.2384,0.2492,0.2546,0.2679,0.2795,0.2853,0.2976,0.291,0.2948,0.2932,0.2667,0.2622,0.2773,0.2759,0.2862,0.2859,0.2856,0.2853,0.2851,0,0.1949,0.1953,0.2017,0.203,0.2057,0.2113,0.216,0.2265,0.2303,0.2506,0.2542,0.2702,0.278,0.285,0.2823,0.2832,0.2923,0.2608,0.2528,0.2788,0.2767,0.2758,0.2748,0.2316,0.2309,0.2304,0.23,0,0.1917,0.1931,0.1941,0.198,0.2018,0.2059,0.212,0.2163,0.231,0.2392,0.2501,0.2577,0.2682,0.2578,0.2583,0.2555,0.2581,0.2501,0.2885,0.2367,0.2275,0.2253,0.2262,0.2255,0.2259,0.2262,0.2265,0.2267,0.1867,0.1871,0.1894,0.1892,0.1956,0.1993,0.1991,0.2057,0.2113,0.2207,0.2344,0.2369,0.2416,0.2291,0.2217,0.2156,0.2337,0.2221,0.2237,0.2258,0.2162,0.2068,0.199,0.1993,0.1995,0.1998,0.2,0,0.1799,0.1808,0.1814,0.1849,0.1865,0.1943,0.1961,0.1933,0.196,0.2037,0.2076,0.1912,0.1846,0.1912,0.1738,0.1701,0.1688,0.1638,0.1615,0.1662,0.1703,0.1578,0.1251,0.1249,0.1247,0.1245,0,0,0.1786,0.1764,0.1755,0.1748,0.1792,0.1835,0.1819,0.1734,0.1726,0.1666,0.1628,0.1757,0.1847,0.1534,0.1479,0.1343,0.1494,0.1283,0.1885,0.1906,0.1945,0.204,0.1899,0,0,0,0,0]},{"header":{"parameterUnit":"m.s-1","parameterCategory":2,"la1":30.2991,"la2":30.254,"lo1":-89.0895,"lo2":-89.0444,"dy":0.0017,"dx":0.0017,"nx":28,"ny":28,"refTime":"2025-02-06T09:00:00:Z","depth":"2","parameterNumber":3,"parameterNumberName":"V-component_of_CURRENTS"},"data":[0,0,0,0,0,0,0,0,0,0,0,0,0,0,0,0,0,0,0,0,0,0,0,0,0,0,0,0,0,0,0,0,0,0,0,0,0,0,0,0,0,0,0,0,0,0,0,0,0,0,0,0,0,0,0,0,0,0,0.0011,0.0011,0,-0.0012,-0.0012,-0.0012,-0.0032,-0.0032,-0.0032,-0.0032,-0.005,-0.005,-0.005,0,0,0,0,0,0,0,0,0,0,0,0,0,0.0007,0.0008,0.0011,0.0011,0.0011,-0.0012,-0.0012,-0.0013,-0.0032,-0.0032,-0.0032,-0.0032,-0.0049,-0.005,-0.005,0,0,0,0,0,0,0,0,0,0,0,0,0,-0.0002,0.0008,0.0011,-0.0,-0.0002,-0.0011,-0.0012,-0.0013,-0.0032,-0.0032,-0.0032,-0.0032,-0.0049,-0.005,-0.005,-0.0053,0,0,-0.0052,-0.0053,0,0,0,0,0,0,0,0,-0.0002,-0.0003,0.0001,0.0,-0.0001,-0.0017,-0.0019,-0.0025,-0.0032,-0.0023,-0.0032,-0.0032,-0.0037,-0.0039,-0.0046,-0.0054,-0.0054,-0.0052,-0.0053,-0.0053,-0.0053,0,0,0,0,0,0,0,-0.0001,-0.0002,-0.0,0.0001,-0.0,-0.0014,-0.0016,-0.0021,-0.0031,-0.0024,-0.0025,-0.0024,-0.0038,-0.0045,-0.0046,-0.0055,-0.0052,-0.0053,-0.0053,-0.0054,-0.0043,-0.0042,0,0,0,0,0,0,0.0007,-0.0001,0.0001,-0.0001,0.0001,-0.0014,-0.0016,-0.0014,-0.0031,-0.0033,-0.0024,-0.0025,-0.0044,-0.0045,-0.0047,-0.0028,-0.0053,-0.0054,-0.0054,-0.0044,-0.0043,-0.0042,0,0,0,0,0,0,0.0007,0.0008,0.0002,0.0,-0.0001,-0.0013,-0.0011,-0.0014,-0.0018,-0.0031,-0.0033,-0.0024,-0.0044,-0.0046,-0.0043,-0.0029,-0.0054,-0.0054,-0.0044,-0.0043,-0.0042,-0.0004,0,0,0,0,0,0,0.0007,0.0008,0.0011,0.0001,-0.0001,0.0002,-0.0011,-0.0014,-0.0017,-0.0018,-0.0032,-0.0034,-0.0044,-0.0042,-0.0044,-0.0031,-0.0055,-0.0045,-0.0044,-0.0043,-0.0007,-0.0002,0.0001,0,0,0,0,0,0.0007,0.0014,0.0011,0.0011,0.0004,0.0003,0.0,-0.001,-0.0016,-0.0015,-0.0021,-0.0033,-0.0035,-0.0042,-0.0044,-0.0031,-0.0046,-0.0044,-0.0043,-0.0008,-0.0003,0.0001,0,0,0,0,0,0,0.0012,0.0013,0.0009,0.0015,0.0012,0.0,0.0001,-0.0006,-0.0012,-0.0012,-0.0026,-0.0028,-0.0019,-0.0031,-0.0037,-0.0024,-0.0042,-0.0041,-0.0015,-0.001,-0.0006,0.0016,-0.0055,0,0,0,0,0,0.0016,0.0022,0.0018,0.0023,0.0023,0.0012,0.001,0.0005,-0.0,-0.0003,-0.0012,-0.0017,-0.0016,-0.0017,-0.002,-0.0015,-0.0021,-0.0007,-0.0003,0.0,0.0018,0.0019,0.0025,-0.0037,-0.0037,-0.0037,0,0,0.0019,0.0021,0.0024,0.0025,0.0021,0.003,0.0011,0.0013,0.0022,-0.0003,0.0005,-0.0004,-0.0011,-0.0002,0.0001,-0.001,0.0012,0.0002,0.0005,0.0021,0.0021,0.0027,0.0033,-0.0036,-0.0036,-0.0037,0,0,0.0034,0.0031,0.0043,0.0045,0.0046,0.0042,0.0046,0.0039,0.0037,0.0044,0.0031,0.0037,0.003,0.0032,0.0032,0.0057,0.0035,0.0048,0.0085,0.0086,0.0091,0.0096,0.0085,0.0089,0.0048,0.0049,0.0049,0,0.0038,0.0054,0.0046,0.0059,0.0065,0.0052,0.0068,0.0066,0.0061,0.0069,0.0055,0.0064,0.0053,0.0074,0.0081,0.0068,0.0057,0.0066,0.0091,0.0096,0.01,0.0088,0.0092,0.0051,0.005,0.005,0.005,0,0.0065,0.0077,0.0085,0.01,0.0103,0.0115,0.0114,0.0121,0.0118,0.0118,0.0136,0.0123,0.0133,0.0124,0.0111,0.0135,0.0113,0.0097,0.008,0.0109,0.0094,0.0097,0.0053,0.0053,0.0052,0.0052,0,0,0.0079,0.01,0.0104,0.0123,0.0127,0.0139,0.0155,0.0172,0.0198,0.0188,0.0225,0.0216,0.0209,0.021,0.019,0.0187,0.0198,0.0155,0.0154,0.0146,0.0189,0.0142,0.014,0.0179,0.018,0.0181,0.0163,0,0.0105,0.0143,0.0142,0.0181,0.0202,0.0198,0.0219,0.0232,0.024,0.0272,0.0265,0.0293,0.024,0.0256,0.0242,0.0219,0.0209,0.0204,0.0162,0.0161,0.0117,0.0143,0.0159,0.0142,0.0166,0.0166,0.0166,0,0.0134,0.0159,0.0197,0.0235,0.0244,0.0264,0.0304,0.0318,0.0349,0.036,0.0375,0.0376,0.0386,0.0341,0.0302,0.0298,0.0251,0.022,0.0218,0.0169,0.012,0.0119,0.0146,0.0171,0.017,0.017,0.017,0,0.016,0.02,0.0236,0.0247,0.0283,0.0305,0.0322,0.0347,0.0375,0.0425,0.0463,0.0458,0.0485,0.0422,0.0348,0.0332,0.03,0.027,0.018,0.0176,0.018,0.0175,0.0247,0.0247,0.0247,0.0247,0.0247,0,0.0191,0.0224,0.0256,0.028,0.0335,0.0338,0.0396,0.0415,0.0457,0.0522,0.051,0.0571,0.0508,0.0482,0.0386,0.0289,0.0324,0.02,0.0175,0.0191,0.0187,0.0206,0.0202,0.0246,0.0246,0.0247,0.0247,0,0.0211,0.0233,0.0281,0.0327,0.0349,0.0383,0.0441,0.0486,0.0514,0.0604,0.0634,0.0668,0.0649,0.0549,0.0474,0.0354,0.0258,0.0211,0.0226,0.0203,0.0124,0.0122,0.0124,0.0122,0.0121,0.012,0.0119,0,0.0227,0.0249,0.0311,0.035,0.0374,0.0429,0.0475,0.0515,0.0577,0.0673,0.0737,0.0757,0.0796,0.0635,0.0456,0.0281,0.026,0.0156,0.0129,0.0139,0.0115,0.0115,0.0115,0.0148,0.0147,0.0147,0.0147,0,0.0248,0.0264,0.0303,0.0385,0.0445,0.0516,0.0594,0.0654,0.0729,0.0815,0.093,0.0967,0.0838,0.0694,0.0439,0.0314,0.0182,0.0138,0.0169,0.0166,0.0157,0.0135,0.0135,0.0142,0.0142,0.0143,0.0143,0.0143,0.026,0.0287,0.0346,0.0428,0.0498,0.0607,0.0686,0.0796,0.092,0.1059,0.1061,0.1102,0.0917,0.0612,0.0393,0.0153,0.0165,0.007,0.0074,0.0078,0.0073,0.0062,0.0027,0.0027,0.0026,0.0026,0.0026,0,0.0283,0.0325,0.0393,0.0497,0.0583,0.0621,0.0773,0.087,0.1048,0.1146,0.1227,0.1038,0.087,0.0646,0.0287,0.0067,0.0065,0.0002,0.0051,0.0057,0.0062,0.0059,0.0007,0.0007,0.0006,0.0006,0,0,0.0303,0.0368,0.041,0.0563,0.0631,0.0759,0.0853,0.1017,0.1128,0.1235,0.1247,0.1218,0.0944,0.0677,0.0398,0.0205,0.018,0.0165,0.0201,0.0298,0.0306,0.0119,0.0122,0,0,0,0,0]}],[{"header":{"parameterUnit":"m.s-1","parameterCategory":2,"la1":30.2991,"la2":30.254,"lo1":-89.0895,"lo2":-89.0444,"dy":0.0017,"dx":0.0017,"nx":28,"ny":28,"refTime":"2025-02-06T09:00:00:Z","depth":"4","parameterNumber":2,"parameterNumberName":"U-component_of_CURRENTS"},"data":[0,0,0,0,0,0,0,0,0,0,0,0,0,0,0,0,0,0,0,0,0,0,0,0,0,0,0,0,0,0,0,0,0,0,0,0,0,0,0,0,0,0,0,0,0,0,0,0,0,0,0,0,0,0,0,0,0,0,0.114,0.1141,0,0.1169,0.1169,0.1169,0.1203,0.1204,0.1204,0.1205,0.1224,0.1224,0.1223,0,0,0,0,0,0,0,0,0,0,0,0,0,0.1092,0.1093,0.114,0.1141,0.1141,0.1169,0.1169,0.1169,0.1203,0.1204,0.1205,0.1205,0.1224,0.1224,0.1223,0,0,0,0,0,0,0,0,0,0,0,0,0,0.1114,0.1093,0.114,0.1163,0.1166,0.1169,0.1169,0.1169,0.1202,0.1204,0.1205,0.1206,0.1224,0.1224,0.1223,0.1199,0,0,0.1222,0.1222,0,0,0,0,0,0,0,0,0.1112,0.1115,0.1159,0.1162,0.1165,0.1186,0.1159,0.1179,0.1202,0.1186,0.1205,0.1206,0.1211,0.1212,0.1211,0.1199,0.12,0.1222,0.1222,0.1222,0.1222,0,0,0,0,0,0,0,0.1111,0.1114,0.1149,0.116,0.1163,0.1165,0.1169,0.1163,0.1189,0.1187,0.1191,0.1197,0.1212,0.1211,0.1212,0.12,0.1222,0.1222,0.1222,0.1222,0.1276,0.1277,0,0,0,0,0,0,0.1113,0.1112,0.1148,0.115,0.1144,0.1165,0.117,0.1176,0.119,0.1194,0.1196,0.1199,0.1211,0.1212,0.1213,0.1269,0.1222,0.1222,0.1222,0.1274,0.1276,0.1278,0,0,0,0,0,0,0.1111,0.1115,0.1147,0.1134,0.1139,0.1165,0.1171,0.1176,0.1202,0.1197,0.1201,0.1222,0.1212,0.1213,0.1236,0.1267,0.1222,0.1221,0.1272,0.1275,0.1277,0.1328,0,0,0,0,0,0,0.111,0.1115,0.1128,0.1134,0.1139,0.1165,0.1171,0.1175,0.1204,0.1208,0.1219,0.1221,0.1213,0.1236,0.1236,0.1266,0.1221,0.127,0.1273,0.1276,0.1325,0.1332,0.1339,0,0,0,0,0,0.1108,0.1117,0.1129,0.1134,0.1155,0.1166,0.1169,0.1189,0.1204,0.1217,0.1232,0.1222,0.1256,0.1237,0.1236,0.1267,0.1269,0.1272,0.1276,0.1321,0.1331,0.1339,0,0,0,0,0,0,0.1105,0.1121,0.1135,0.115,0.1167,0.1173,0.1189,0.1202,0.1223,0.1236,0.1232,0.1234,0.127,0.126,0.124,0.1294,0.1264,0.1268,0.13,0.1308,0.1315,0.1314,0.1221,0,0,0,0,0,0.111,0.1124,0.1139,0.1156,0.1165,0.1182,0.1194,0.1209,0.1224,0.1236,0.1245,0.126,0.1278,0.1288,0.1296,0.1315,0.1315,0.1339,0.1346,0.1352,0.1352,0.139,0.1401,0.129,0.129,0.129,0,0,0.1114,0.1127,0.1136,0.1157,0.1172,0.1185,0.1193,0.1218,0.1238,0.1232,0.1267,0.1283,0.129,0.132,0.1335,0.1319,0.1384,0.1356,0.1361,0.1358,0.1395,0.1406,0.1415,0.1292,0.1292,0.1291,0,0,0.1121,0.1142,0.1154,0.1167,0.1196,0.1205,0.1219,0.124,0.1263,0.1292,0.1303,0.1339,0.1355,0.1371,0.138,0.1429,0.1421,0.1441,0.1473,0.151,0.1519,0.1527,0.1538,0.1547,0.1443,0.1443,0.1443,0,0.1129,0.1144,0.1161,0.1175,0.1187,0.1217,0.1231,0.1253,0.1283,0.13,0.1313,0.1369,0.1379,0.1419,0.1447,0.1444,0.1458,0.1438,0.1519,0.1527,0.1534,0.1544,0.1552,0.1446,0.1446,0.1446,0.1445,0,0.1136,0.1157,0.1167,0.1193,0.1209,0.1227,0.1255,0.1282,0.1315,0.1337,0.1395,0.1422,0.1455,0.1475,0.1477,0.154,0.153,0.1524,0.1494,0.1548,0.1555,0.1563,0.145,0.1449,0.1448,0.1448,0,0,0.1126,0.1164,0.117,0.1181,0.122,0.1226,0.1266,0.1299,0.133,0.138,0.1426,0.1478,0.1508,0.1521,0.1542,0.1582,0.165,0.1584,0.1584,0.1588,0.1725,0.1607,0.1604,0.1667,0.1669,0.167,0.1706,0,0.113,0.115,0.1174,0.1196,0.1204,0.1238,0.1264,0.1302,0.1353,0.1406,0.1459,0.1519,0.1522,0.1565,0.1603,0.1647,0.1676,0.164,0.1676,0.1676,0.1561,0.1611,0.1676,0.1712,0.1714,0.1716,0.1717,0,0.1124,0.1138,0.1158,0.1186,0.1194,0.1219,0.1265,0.1297,0.1374,0.1417,0.1488,0.1544,0.1623,0.1625,0.1708,0.169,0.1711,0.1735,0.1737,0.1612,0.1574,0.1649,0.1731,0.173,0.1729,0.1728,0.1727,0,0.1086,0.1123,0.1138,0.1147,0.1186,0.121,0.1241,0.1305,0.1333,0.145,0.1499,0.1588,0.1659,0.1705,0.176,0.1751,0.184,0.1825,0.1728,0.1719,0.1791,0.1782,0.1874,0.1874,0.1874,0.1874,0.1874,0,0.1062,0.1074,0.1127,0.113,0.1141,0.119,0.1227,0.1271,0.1354,0.1394,0.1514,0.1571,0.1692,0.1758,0.178,0.1775,0.1853,0.1737,0.1726,0.1811,0.1804,0.1796,0.1786,0.1875,0.1875,0.1875,0.1875,0,0.1004,0.1049,0.1056,0.1106,0.1123,0.1132,0.1196,0.1224,0.1322,0.1389,0.1437,0.1582,0.1675,0.1756,0.1845,0.1792,0.1806,0.178,0.1862,0.1854,0.1651,0.1645,0.167,0.1666,0.1663,0.166,0.1658,0,0.0971,0.0971,0.1016,0.102,0.1048,0.1079,0.1099,0.1191,0.1225,0.1373,0.1396,0.1547,0.1629,0.1657,0.1745,0.1771,0.1752,0.1733,0.1693,0.1646,0.1634,0.1632,0.1629,0.1653,0.1652,0.1651,0.1651,0,0.0887,0.0915,0.092,0.0931,0.0959,0.0965,0.1014,0.1031,0.1145,0.1254,0.1337,0.1412,0.1512,0.1592,0.1632,0.1642,0.1734,0.1699,0.1706,0.1667,0.1626,0.1616,0.1618,0.164,0.1641,0.1642,0.1643,0,0.0822,0.08,0.0818,0.082,0.0842,0.0839,0.0884,0.0937,0.0986,0.1166,0.119,0.1355,0.1493,0.1524,0.1552,0.1566,0.1541,0.1479,0.1496,0.1509,0.1441,0.1364,0.1291,0,0,0,0,0,0.0749,0.0717,0.0702,0.0695,0.0714,0.0733,0.0809,0.087,0.1005,0.1027,0.1103,0.1194,0.1283,0.1367,0.1351,0.1467,0.1533,0.1438,0.1465,0.1578,0.1591,0.1527,0,0,0,0,0,0,0.0702,0.0679,0.0664,0.059,0.057,0.0581,0.0636,0.0736,0.0757,0.0913,0.0979,0.1092,0.1206,0.1275,0.1318,0.1339,0.1324,0.1533,0.1529,0.1571,0.1583,0.1593,0.1531,0,0,0,0,0]},{"header":{"parameterUnit":"m.s-1","parameterCategory":2,"la1":30.2991,"la2":30.254,"lo1":-89.0895,"lo2":-89.0444,"dy":0.0017,"dx":0.0017,"nx":28,"ny":28,"refTime":"2025-02-06T09:00:00:Z","depth":"4","parameterNumber":3,"parameterNumberName":"V-component_of_CURRENTS"},"data":[0,0,0,0,0,0,0,0,0,0,0,0,0,0,0,0,0,0,0,0,0,0,0,0,0,0,0,0,0,0,0,0,0,0,0,0,0,0,0,0,0,0,0,0,0,0,0,0,0,0,0,0,0,0,0,0,0,0,-0.0007,-0.0007,0,-0.0021,-0.0021,-0.0021,-0.0035,-0.0035,-0.0036,-0.0036,-0.005,-0.005,-0.0051,0,0,0,0,0,0,0,0,0,0,0,0,0,-0.0011,-0.0011,-0.0007,-0.0007,-0.0007,-0.0021,-0.0021,-0.0021,-0.0035,-0.0035,-0.0036,-0.0036,-0.005,-0.005,-0.0051,0,0,0,0,0,0,0,0,0,0,0,0,0,-0.0016,-0.0011,-0.0007,-0.0015,-0.0016,-0.0021,-0.0021,-0.0021,-0.0035,-0.0035,-0.0036,-0.0036,-0.005,-0.005,-0.0051,-0.0049,0,0,-0.0052,-0.0052,0,0,0,0,0,0,0,0,-0.0016,-0.0016,-0.0014,-0.0015,-0.0016,-0.0026,-0.0028,-0.003,-0.0035,-0.0029,-0.0036,-0.0036,-0.0042,-0.0043,-0.0046,-0.005,-0.005,-0.0052,-0.0052,-0.0052,-0.0053,0,0,0,0,0,0,0,-0.0015,-0.0015,-0.0013,-0.0014,-0.0015,-0.0025,-0.0026,-0.0029,-0.0034,-0.0029,-0.003,-0.0031,-0.0042,-0.0045,-0.0046,-0.0051,-0.0052,-0.0052,-0.0053,-0.0053,-0.006,-0.006,0,0,0,0,0,0,-0.0011,-0.0015,-0.0013,-0.0013,-0.0016,-0.0024,-0.0025,-0.0023,-0.0034,-0.0036,-0.003,-0.0031,-0.0045,-0.0046,-0.0047,-0.0043,-0.0052,-0.0053,-0.0053,-0.006,-0.006,-0.006,0,0,0,0,0,0,-0.0011,-0.0011,-0.0012,-0.0014,-0.0015,-0.0024,-0.0021,-0.0023,-0.0026,-0.0035,-0.0037,-0.0031,-0.0045,-0.0046,-0.0046,-0.0044,-0.0053,-0.0053,-0.006,-0.006,-0.006,-0.0036,0,0,0,0,0,0,-0.0011,-0.001,-0.0008,-0.0014,-0.0015,-0.0012,-0.0021,-0.0023,-0.0026,-0.0027,-0.0036,-0.0038,-0.0045,-0.0045,-0.0046,-0.0044,-0.0054,-0.006,-0.006,-0.006,-0.0037,-0.0036,-0.0034,0,0,0,0,0,-0.0011,-0.0005,-0.0008,-0.0007,-0.0011,-0.0012,-0.0013,-0.0021,-0.0026,-0.0025,-0.003,-0.0038,-0.0046,-0.0045,-0.0047,-0.0045,-0.006,-0.006,-0.006,-0.0038,-0.0036,-0.0034,0,0,0,0,0,0,-0.0007,-0.0006,-0.0009,-0.0004,-0.0007,-0.0014,-0.0014,-0.0019,-0.0023,-0.0024,-0.0034,-0.0035,-0.0036,-0.0043,-0.0042,-0.0048,-0.0056,-0.0056,-0.0039,-0.0037,-0.0035,-0.0037,-0.0054,0,0,0,0,0,-0.0004,0.0001,-0.0002,0.0001,0.0001,-0.0006,-0.0008,-0.0012,-0.0016,-0.0018,-0.0025,-0.0032,-0.0036,-0.0038,-0.0044,-0.0044,-0.0056,-0.0045,-0.0043,-0.0042,-0.0045,-0.0056,-0.0055,-0.006,-0.006,-0.006,0,0,-0.0003,-0.0001,0.0,0.0003,-0.0001,0.0002,-0.0008,-0.0007,-0.0007,-0.0018,-0.0019,-0.0026,-0.0035,-0.0036,-0.0037,-0.0041,-0.0048,-0.0042,-0.004,-0.0044,-0.0055,-0.0055,-0.0054,-0.006,-0.006,-0.006,0,0,0.0004,0.0005,0.0012,0.0013,0.0013,0.0009,0.001,0.0005,0.0001,0.0002,-0.0008,-0.0013,-0.0018,-0.0026,-0.003,-0.0024,-0.0039,-0.0026,-0.0019,-0.0028,-0.0028,-0.0028,-0.0045,-0.0047,-0.0025,-0.0025,-0.0025,0,0.0006,0.0016,0.0013,0.002,0.0025,0.0013,0.0023,0.0016,0.001,0.0012,0.0005,-0.0004,-0.0015,-0.0015,-0.0018,-0.002,-0.003,-0.0023,-0.0026,-0.0026,-0.0026,-0.0044,-0.0046,-0.0024,-0.0024,-0.0024,-0.0024,0,0.0019,0.0027,0.0032,0.0039,0.0042,0.0048,0.0043,0.004,0.0035,0.0031,0.003,0.0015,0.0011,0.0004,-0.0007,-0.0012,-0.002,-0.0022,-0.0029,-0.0024,-0.0044,-0.0046,-0.0022,-0.0023,-0.0023,-0.0023,0,0,0.0025,0.0039,0.0041,0.0055,0.0055,0.0064,0.0062,0.0064,0.0072,0.0057,0.0069,0.0045,0.0037,0.0031,0.0018,0.0002,-0.0014,-0.0012,-0.0013,-0.0027,-0.0041,-0.0043,-0.0046,-0.0013,-0.0013,-0.0013,-0.0054,0,0.0038,0.0062,0.0063,0.0086,0.01,0.0094,0.0098,0.0098,0.0094,0.01,0.0079,0.0085,0.0048,0.0054,0.0029,0.0003,-0.002,-0.0004,-0.0046,-0.0048,-0.0048,-0.0049,-0.0014,-0.0056,-0.0057,-0.0057,-0.0058,0,0.0052,0.0069,0.0095,0.0122,0.0128,0.0138,0.0154,0.016,0.0156,0.0155,0.0146,0.0133,0.0108,0.0083,0.0021,0.0035,-0.0006,-0.0034,-0.0036,-0.0049,-0.0054,-0.0063,-0.0063,-0.0062,-0.0062,-0.0062,-0.0061,0,0.0067,0.0094,0.012,0.0128,0.015,0.0163,0.0176,0.0177,0.0203,0.0197,0.0212,0.0174,0.0175,0.011,0.0037,0.0033,-0.0029,-0.0036,-0.0081,-0.0082,-0.0078,-0.0078,-0.0082,-0.0082,-0.0082,-0.0082,-0.0081,0,0.0084,0.0107,0.0132,0.0148,0.0191,0.0194,0.0238,0.0238,0.0262,0.03,0.0249,0.0264,0.0183,0.0137,0.0055,-0.0023,-0.0017,-0.0083,-0.0091,-0.0067,-0.0066,-0.008,-0.0079,-0.0083,-0.0083,-0.0082,-0.0082,0,0.0098,0.011,0.0149,0.0182,0.02,0.0234,0.0299,0.0334,0.0333,0.0382,0.0387,0.0348,0.0277,0.0181,0.0087,0.0018,-0.0065,-0.0095,-0.0067,-0.0072,-0.0118,-0.0116,-0.0147,-0.0147,-0.0148,-0.0148,-0.0148,0,0.0109,0.0126,0.0181,0.0221,0.0242,0.0299,0.0345,0.0373,0.0419,0.0431,0.0462,0.0409,0.0362,0.0225,0.0111,-0.0044,-0.0068,-0.0114,-0.0122,-0.012,-0.0125,-0.0122,-0.0119,-0.0149,-0.0149,-0.0149,-0.0149,0,0.0135,0.0151,0.0188,0.0263,0.0322,0.0397,0.0463,0.0504,0.0536,0.0535,0.0533,0.045,0.0372,0.0244,0.0124,0.001,-0.0086,-0.0118,-0.0118,-0.0126,-0.0123,-0.0126,-0.0123,-0.015,-0.015,-0.015,-0.015,0,0.016,0.0193,0.0242,0.0313,0.0388,0.0471,0.0505,0.056,0.0602,0.0606,0.0605,0.0494,0.0439,0.0272,0.0159,0.0047,0.0015,-0.0023,-0.0029,-0.0029,0.0011,0.0033,0.0046,0,0,0,0,0,0.0187,0.0229,0.0294,0.0375,0.0448,0.0494,0.0577,0.0605,0.063,0.0641,0.0627,0.0546,0.0377,0.0303,0.0193,0.0143,-0.0011,0.0008,-0.0059,-0.0156,-0.0155,-0.013,0,0,0,0,0,0,0.021,0.0266,0.0297,0.041,0.0471,0.0562,0.0613,0.0635,0.0645,0.0642,0.0559,0.051,0.035,0.0437,0.0186,0.0151,0.0092,-0.0072,-0.0075,-0.0157,-0.0156,-0.0155,-0.0128,0,0,0,0,0]}]]